Location: Bishopstone
(51.0167°N, 1.9000°W)
Time: 00:50:38
(UTC+00:00)

H-2A R/B - Pass Details

Date: 16 September 2019
Orbit: 734 x 836 km, 98.3° (Epoch: 14 October)

Event Time Altitude Azimuth Distance (km) Brightness Sun altitude
Exits shadow 20:06:40 12° 171° (S) 2,122 4.0 -16.9°
Maximum altitude 20:11:17 76° 257° (WSW) 774 2.1 -17.5°
Drops below altitude 10° 20:16:19 10° 343° (NNW) 2,295 5.1 -18.2°
Sets 20:18:40 0° 345° (NNW) 3,239 5.9 -18.5°
